STARLINK-2245, 48589

Orbit data source: Space-Track

STARLINK-2245, 48589 is a payload satellite owned by SpaceX/Seattle (US) in LEO that was launched on Sat, 15 May 2021 UTC via an FALCON 9 launch vehicle from the Air Force Eastern Test Range (AFETR). Payload-class satellites include a variety of spacecraft equipped with specific instruments for various scientific and technological missions. These include communications satellites like Starlink; space stations such as the ISS; scientific satellites like the Hubble; Earth observation satellites from companies like Planet Labs, Umbra, and HawkEye 360; GPS; miniature CubeSats for education and research; and military/defense satellites.

Loading next visibility...
Identifier
48589, 2021-041AN
Orbit
LEO
Country
Flag of USUS
Related business
Manufacturer
SpaceX/Seattle
Mission
Operational Commercial Communications
Bus & Motor
STARLINK, Unknown motor
Mass
260 kg wet, ~248 kg dry
Launch date (UTC)
2021-05-15 (5 years ago)
Launch vehicle
FALCON 9
Launch site
Air Force Eastern Test Range (AFETR)
Object type
Payload
Rocket body
Debris
Shape & HBR
Box + 1 Pan, 10.1 m
Radar Cross Section
13.562 m², Large (>1 m²)

Expand to show TLE details & history
Last TLE update: 23 hours ago

TLE from 23 hours ago
0 STARLINK-2245
1 48589U 21041AN  25349.85674168  .00000719  00000-0  67169-4 0  9990
2 48589  53.0549 147.9566 0001392  92.1113 268.0035 15.06401544252566
Epoch: 2025-12-15T20:33Z
TLE epoch observation values (Epoch: 2025-12-15T20:33:42.481Z)
Latitude
-0.00004°
Longitude
114.78027°
Altitude
548.12 km
Speed
7.589 km/s
True Right ascension
09h 51m 49s
True Declination
0° 00' 00"
Sunlit
Object was in full shadow at epoch
Visualization orbit readout
Latitude
Unknown
Longitude
Unknown
Altitude
Unknown
Speed
Unknown
Apparent Right ascension
Unknown
Apparent Declination
Unknown
Sunlit
N/A
Visualization observer readout
Local Sidereal Time
17:50:04
Azimuth
Unknown
Elevation
Unknown
Doppler factor
Unknown
Orbital elements
Apogee altitude
548.442 km
Perigee altitude
546.513 km
Semi-major axis
6,925.614 km
Eccentricity
0.00014
Inclination
53.0549°
RAAN
147.9566°
Arg. of periapsis
92.1113°
True anomaly
267.98756°
Mean anomaly
268.0035°
Eccentric anomaly
267.99553°
Mean motion
3.76579 °/min
Orbital period
95.6 mins
BSTAR
0.000067169
Loading maneuver chart data...
Computing Atmospheric mass density...

Documentation

Showing up to 5 results
|